When you browse on this site, cookies collect data to enhance your experience and personalize the content and advertising you see.
Visit our Privacy Policy to learn more. By continuing to use the site, you agree to this use of cookies and data.

Hourly Weather Kastoria

Today, 4 August, Tuesday

Time Temperature Precipitation Wind Pressure Humidity
00:00 +22°C° 0 mm 1 mps 700 mmHg 81%
01:00 +21°C° 0 mm 1 mps 700 mmHg 82%
02:00 +21°C° 0 mm 1 mps 700 mmHg 82%
03:00 +21°C° 0 mm 1 mps 700 mmHg 83%
04:00 +20°C° 0 mm 1 mps 700 mmHg 84%
05:00 +22°C° 0 mm 1 mps 700 mmHg 78%
06:00 +23°C° 0 mm 1 mps 700 mmHg 72%
07:00 +25°C° 0 mm 1 mps 701 mmHg 66%
08:00 +27°C° 0 mm 1 mps 701 mmHg 56%
09:00 +29°C° 0 mm 2 mps 701 mmHg 47%
10:00 +32°C° 0 mm 2 mps 702 mmHg 37%
11:00 +34°C° 0 mm 2 mps 701 mmHg 33%
12:00 +35°C° 0 mm 2 mps 701 mmHg 29%
13:00 +36°C° 0 mm 2 mps 701 mmHg 25%
14:00 +35°C° 0 mm 2 mps 701 mmHg 26%
15:00 +35°C° 0 mm 2 mps 700 mmHg 28%
16:00 +34°C° 0 mm 2 mps 700 mmHg 30%
17:00 +31°C° 0 mm 2 mps 700 mmHg 36%
18:00 +29°C° 0 mm 2 mps 700 mmHg 43%
19:00 +27°C° 0 mm 2 mps 699 mmHg 50%
20:00 +26°C° 0 mm 2 mps 700 mmHg 53%
21:00 +24°C° 0 mm 1 mps 700 mmHg 57%
22:00 +23°C° 0 mm 1 mps 700 mmHg 61%
23:00 +23°C° 0 mm 1 mps 699 mmHg 63%

Tomorrow, 5 August, Wednesday

Time Temperature Precipitation Wind Pressure Humidity
00:00 +22°C° 0 mm 1 mps 699 mmHg 64%
01:00 +21°C° 0 mm 1 mps 699 mmHg 66%
02:00 +21°C° 0 mm 1 mps 699 mmHg 67%
03:00 +21°C° 0 mm 1 mps 698 mmHg 69%
04:00 +20°C° 0 mm 1 mps 698 mmHg 71%
05:00 +22°C° 0.1 mm 1 mps 698 mmHg 66%
06:00 +23°C° 0.1 mm 1 mps 699 mmHg 62%
07:00 +25°C° 0.1 mm 1 mps 699 mmHg 58%
08:00 +26°C° 0.1 mm 2 mps 699 mmHg 52%
09:00 +27°C° 0.1 mm 2 mps 700 mmHg 47%
10:00 +29°C° 0.1 mm 3 mps 700 mmHg 42%
11:00 +29°C° 0.2 mm 3 mps 700 mmHg 41%
12:00 +30°C° 0.2 mm 4 mps 699 mmHg 41%
13:00 +30°C° 0.2 mm 4 mps 699 mmHg 40%
14:00 +30°C° 0.6 mm 4 mps 699 mmHg 42%
15:00 +29°C° 0.6 mm 4 mps 699 mmHg 45%
16:00 +28°C° 0.6 mm 5 mps 698 mmHg 47%
17:00 +26°C° 1.4 mm 4 mps 698 mmHg 59%
18:00 +22°C° 1.4 mm 3 mps 698 mmHg 70%
19:00 +20°C° 1.4 mm 2 mps 698 mmHg 82%
20:00 +19°C° 0.2 mm 2 mps 699 mmHg 85%
21:00 +19°C° 0.2 mm 1 mps 699 mmHg 87%
22:00 +18°C° 0.2 mm 1 mps 699 mmHg 90%
23:00 +18°C° 0.1 mm 1 mps 699 mmHg 91%

Day after tomorrow, 6 August, Thursday

Time Temperature Precipitation Wind Pressure Humidity
00:00 +18°C° 0.1 mm 1 mps 699 mmHg 91%
01:00 +18°C° 0.1 mm 1 mps 699 mmHg 92%
02:00 +18°C° 0.2 mm 1 mps 699 mmHg 92%
03:00 +16°C° 0.2 mm 1 mps 699 mmHg 93%
04:00 +16°C° 0.2 mm 1 mps 699 mmHg 93%
05:00 +18°C° 0.3 mm 1 mps 699 mmHg 90%
06:00 +19°C° 0.3 mm 1 mps 699 mmHg 86%
07:00 +21°C° 0.3 mm 1 mps 700 mmHg 82%
08:00 +22°C° 1.1 mm 1 mps 700 mmHg 76%
09:00 +23°C° 1.1 mm 2 mps 700 mmHg 70%
10:00 +25°C° 1.1 mm 2 mps 701 mmHg 64%
11:00 +25°C° 2.5 mm 2 mps 701 mmHg 63%
12:00 +25°C° 2.5 mm 2 mps 701 mmHg 62%
13:00 +26°C° 2.5 mm 2 mps 701 mmHg 61%
14:00 +24°C° 2.5 mm 2 mps 700 mmHg 67%
15:00 +23°C° 2.5 mm 2 mps 700 mmHg 72%
16:00 +21°C° 2.5 mm 2 mps 700 mmHg 78%
17:00 +20°C° 1.8 mm 2 mps 700 mmHg 83%
18:00 +19°C° 1.8 mm 2 mps 700 mmHg 87%
19:00 +19°C° 1.8 mm 2 mps 701 mmHg 91%
20:00 +18°C° 1.3 mm 2 mps 701 mmHg 92%
21:00 +18°C° 1.3 mm 2 mps 701 mmHg 92%
22:00 +17°C° 1.3 mm 2 mps 701 mmHg 92%
23:00 +17°C° 0.1 mm 2 mps 701 mmHg 92%

7 August, Friday

Time Temperature Precipitation Wind Pressure Humidity
00:00 +17°C° 0.1 mm 2 mps 700 mmHg 93%
01:00 +16°C° 0.1 mm 1 mps 700 mmHg 93%
02:00 +16°C° 0.3 mm 1 mps 700 mmHg 93%
03:00 +16°C° 0.3 mm 1 mps 700 mmHg 93%
04:00 +16°C° 0.3 mm 1 mps 700 mmHg 93%
05:00 +18°C° 0.1 mm 1 mps 700 mmHg 90%
06:00 +19°C° 0.1 mm 1 mps 700 mmHg 87%
07:00 +20°C° 0.1 mm 1 mps 701 mmHg 83%
08:00 +21°C° 0.1 mm 1 mps 701 mmHg 77%
09:00 +22°C° 0.1 mm 1 mps 701 mmHg 72%
10:00 +23°C° 0.1 mm 2 mps 702 mmHg 66%
11:00 +23°C° 0.3 mm 2 mps 702 mmHg 62%
12:00 +24°C° 0.3 mm 2 mps 702 mmHg 58%
13:00 +25°C° 0.3 mm 2 mps 702 mmHg 54%
14:00 +25°C° 0.2 mm 2 mps 702 mmHg 55%
15:00 +25°C° 0.2 mm 2 mps 701 mmHg 57%
16:00 +24°C° 0.2 mm 2 mps 701 mmHg 58%
17:00 +23°C° 0 mm 2 mps 701 mmHg 62%
18:00 +21°C° 0 mm 2 mps 701 mmHg 66%
19:00 +20°C° 0 mm 2 mps 701 mmHg 70%
20:00 +20°C° 0 mm 1 mps 701 mmHg 72%
21:00 +20°C° 0 mm 1 mps 701 mmHg 75%
22:00 +19°C° 0 mm 1 mps 701 mmHg 77%
23:00 +19°C° 0 mm 1 mps 701 mmHg 78%

8 August, Saturday

Time Temperature Precipitation Wind Pressure Humidity
00:00 +19°C° 0 mm 1 mps 701 mmHg 79%
01:00 +19°C° 0 mm 1 mps 700 mmHg 79%
02:00 +19°C° 0 mm 1 mps 700 mmHg 81%
03:00 +18°C° 0 mm 1 mps 700 mmHg 83%
04:00 +18°C° 0 mm 1 mps 700 mmHg 84%
05:00 +19°C° 0 mm 1 mps 700 mmHg 80%
06:00 +19°C° 0 mm 2 mps 700 mmHg 76%
07:00 +21°C° 0 mm 2 mps 701 mmHg 72%
08:00 +23°C° 0.2 mm 2 mps 701 mmHg 67%
09:00 +24°C° 0.2 mm 3 mps 701 mmHg 61%
10:00 +26°C° 0.2 mm 3 mps 701 mmHg 55%
11:00 +26°C° 0.6 mm 3 mps 701 mmHg 55%
12:00 +26°C° 0.6 mm 3 mps 701 mmHg 55%
13:00 +27°C° 0.6 mm 3 mps 701 mmHg 54%
14:00 +26°C° 1.1 mm 3 mps 701 mmHg 57%
15:00 +26°C° 1.1 mm 3 mps 701 mmHg 60%
16:00 +25°C° 1.1 mm 3 mps 701 mmHg 63%
17:00 +23°C° 0.9 mm 2 mps 701 mmHg 71%
18:00 +20°C° 0.9 mm 2 mps 701 mmHg 79%
19:00 +19°C° 0.9 mm 1 mps 701 mmHg 87%
20:00 +19°C° 0 mm 1 mps 701 mmHg 86%
21:00 +18°C° 0 mm 1 mps 701 mmHg 85%
22:00 +18°C° 0 mm 1 mps 701 mmHg 84%
23:00 +18°C° 0 mm 1 mps 701 mmHg 84%

9 August, Sunday

Time Temperature Precipitation Wind Pressure Humidity
00:00 +18°C° 0 mm 1 mps 700 mmHg 84%
01:00 +18°C° 0 mm 1 mps 700 mmHg 83%
02:00 +18°C° 0 mm 1 mps 700 mmHg 84%
03:00 +18°C° 0 mm 1 mps 700 mmHg 85%
04:00 +18°C° 0 mm 1 mps 700 mmHg 85%
05:00 +19°C° 0 mm 1 mps 700 mmHg 82%
06:00 +21°C° 0 mm 1 mps 700 mmHg 79%
07:00 +22°C° 0 mm 1 mps 701 mmHg 75%
08:00 +23°C° 0.1 mm 2 mps 701 mmHg 68%
09:00 +25°C° 0.1 mm 2 mps 701 mmHg 61%
10:00 +27°C° 0.1 mm 2 mps 702 mmHg 54%
11:00 +27°C° 0.6 mm 2 mps 701 mmHg 53%
12:00 +27°C° 0.6 mm 2 mps 701 mmHg 52%
13:00 +28°C° 0.6 mm 2 mps 701 mmHg 51%
14:00 +28°C° 0.5 mm 2 mps 701 mmHg 51%
15:00 +28°C° 0.5 mm 2 mps 701 mmHg 51%
16:00 +27°C° 0.5 mm 2 mps 701 mmHg 52%
17:00 +26°C° 0.1 mm 1 mps 701 mmHg 57%
18:00 +24°C° 0.1 mm 1 mps 701 mmHg 62%
19:00 +23°C° 0.1 mm 1 mps 701 mmHg 68%
20:00 +22°C° 0 mm 1 mps 701 mmHg 69%
21:00 +22°C° 0 mm 1 mps 701 mmHg 70%
22:00 +21°C° 0 mm 1 mps 701 mmHg 71%
23:00 +21°C° 0 mm 1 mps 701 mmHg 72%
Show more